TVDown
Request new show | Personalize | Added "Phantom Signals" -> remember to select them in the Personalize page 
Show Title Countdown Local airdate
The ConnersUSS03E08Young Love, Old Lions and Middle-Aged Hyenas17 hours, 53 minutes Thu 21/01/2021 03:00 am
Match of the DayGBS2021E2720/01/202118 hours, 38 minutes Thu 21/01/2021 03:45 am
ConanUSS2021E03Max Greenfield18 hours, 53 minutes Thu 21/01/2021 04:00 am
RidiculousnessUSS19E36Chanel And Sterling Cclxiii18 hours, 53 minutes Thu 21/01/2021 04:00 am
Jimmy Kimmel LiveUSS2021E11John Oliver, Charles P. Pierce, Ashley McBryde19 hours, 28 minutes Thu 21/01/2021 04:35 am
The Tonight Show Starring Jimmy FallonUSS2021E13Martin Scorsese, Fran Lebowitz, Pete Buttigieg, Hunter Schafer19 hours, 28 minutes Thu 21/01/2021 04:35 am
UFC Fight NightS15E02UFC Fight Night: Chiesa vs. Magny7 hours, 53 minutes Wed 20/01/2021 05:00 pm
Late Night with Seth MeyersUSS2021E11Chris Hayes, Sarah Thawer3 hours, 31 minutes ago Wed 20/01/2021 05:35 am
BulletproofS03E01Episode 1 NEW season14 hours, 53 minutes Thu 21/01/2021 12:00 am
The ExpanseS05E08Hard Vacuum14 hours, 53 minutes Thu 21/01/2021 12:00 am
The One ShowGBS2021E1320/01/202114 hours, 53 minutes Thu 21/01/2021 12:00 am
AEW WrestlingUSS2021E03#69 - Daily's Place in Jacksonville, FL15 hours, 53 minutes Thu 21/01/2021 01:00 am
RiverdaleUSS05E01Chapter Seventy-Seven: Climax NEW season15 hours, 53 minutes Thu 21/01/2021 01:00 am
Grand DesignsGBS21E03South Lincolnshire: Contemporary Barn House16 hours, 53 minutes Thu 21/01/2021 02:00 am
Nancy DrewUSS02E01The Search for the Midnight Wraith NEW season16 hours, 53 minutes Thu 21/01/2021 02:00 am
Chrisley Knows BestUSS08E19Grays of Thunder1 day, 17 hours Fri 22/01/2021 03:00 am
Private EyesCAS04E10Smoke Gets in Your Eyes1 day, 17 hours Fri 22/01/2021 03:00 am
Search PartyS04E04Episode 41 day, 17 hours Fri 22/01/2021 03:00 am
The StandS01E06The Vigil1 day, 14 hours Fri 22/01/2021 12:00 am
EastEndersGBS37E12Thursday 21st January1 day, 15 hours Fri 22/01/2021 12:35 am
BattleBotsUSS05E07Turning up the Heat1 day, 15 hours Fri 22/01/2021 01:00 am
grown-ishUSS03E09Public Service Announcement1 day, 15 hours Fri 22/01/2021 01:00 am
Hell's KitchenUSS19E03Hell Caesar!1 day, 15 hours Fri 22/01/2021 01:00 am
Mr. MayorUSS01E04The SAC1 day, 15 hours Fri 22/01/2021 01:00 am
RuPaul's Drag Race UKS02E02Episode 21 day, 15 hours Fri 22/01/2021 01:00 am
WalkerUSS01E01Pilot NEW1 day, 15 hours Fri 22/01/2021 01:00 am
Young SheldonUSS04E06Freshman Orientation and the Inventor of the Zipper1 day, 15 hours Fri 22/01/2021 01:00 am
SuperstoreUSS06E06Biscuit1 day, 16 hours Fri 22/01/2021 01:30 am
B PositiveUSS01E06Open Heart Surgery1 day, 16 hours Fri 22/01/2021 01:31 am
Call Me KatUSS01E04Therapy1 day, 16 hours Fri 22/01/2021 02:00 am
Death in ParadiseGBS10E03Episode 31 day, 16 hours Fri 22/01/2021 02:00 am
Law & Order: Special Victims UnitUSS22E06The Long Arm of the Witness1 day, 16 hours Fri 22/01/2021 02:00 am
LegaciesUSS03E01We're Not Worthy NEW season1 day, 16 hours Fri 22/01/2021 02:00 am
QIGBS18E15Random1 day, 16 hours Fri 22/01/2021 02:00 am
MomUSS08E06Woo-Woo Lights and an Onside Kick1 day, 16 hours Fri 22/01/2021 02:01 am
Last Man StandingUSS09E04Jen Again1 day, 17 hours Fri 22/01/2021 02:30 am
Mock the WeekGBS19E09Angela Barnes, Catherine Bohart, Ed Gamble, Rhys James, 1 day, 17 hours Fri 22/01/2021 02:30 am
The UnicornUSS02E05The First Supper1 day, 17 hours Fri 22/01/2021 02:30 am
Blue BloodsUSS11E05Spilling Secrets2 days, 17 hours Sat 23/01/2021 03:00 am
Real Time with Bill MaherUSS19E02Episode 5522 days, 17 hours Sat 23/01/2021 03:00 am
DickinsonS02E05Forbidden Fruit a Flavor Has2 days, 14 hours Sat 23/01/2021 12:00 am
ServantS02E02Spaceman2 days, 14 hours Sat 23/01/2021 12:00 am
WandaVisionS01E03Episode 32 days, 14 hours Sat 23/01/2021 12:00 am
Gold RushUSS11E13Got Your Six2 days, 15 hours Sat 23/01/2021 01:00 am
MacGyverUSS05E06Quarantine + N95 + Landline + Telescope + Social Distance2 days, 15 hours Sat 23/01/2021 01:00 am
RuPaul's Drag RaceUSS13E04RuPaulmark Channel2 days, 15 hours Sat 23/01/2021 01:00 am
Shark TankUSS12E11Episode 112 days, 15 hours Sat 23/01/2021 01:00 am
TalangSES11E02Episode 22 days, 15 hours Sat 23/01/2021 01:00 am
The BlacklistUSS08E0316 Ounces2 days, 15 hours Sat 23/01/2021 01:00 am
Whose Line Is It Anyway?USS17E03Jonathan Mangum 92 days, 15 hours Sat 23/01/2021 01:00 am
EuphoriaUSS01EF*ck Anyone Who's Not a Sea Blob2 days, 16 hours Sat 23/01/2021 02:00 am
It's a SinGBS01E01Episode 1 NEW2 days, 16 hours Sat 23/01/2021 02:00 am
Magnum P.I.USS03E06Tell No One2 days, 16 hours Sat 23/01/2021 02:00 am
Penn & Teller: Fool UsUSS07E17Jedi Mind Tricks2 days, 16 hours Sat 23/01/2021 02:00 am
VikingsCAS06E14Lost Souls2 days, 16 hours Sat 23/01/2021 02:00 am
Would I Lie to You?GBS14E03Josh Widdicombe, Gemma Cairney, Raj Bisram, Sophie Hermann2 days, 16 hours Sat 23/01/2021 02:00 am
UFC PPV EventsUSS29E01UFC 257: Poirier vs. McGregor 2 NEW season3 days, 17 hours Sun 24/01/2021 03:00 am
The Voice UKGBS10E04Blind Auditions 43 days, 16 hours Sun 24/01/2021 01:30 am
F.B.I.USS03E04Crazy Love4 days, 17 hours Mon 25/01/2021 03:00 am
The RookieUSS03E04Sabotage4 days, 17 hours Mon 25/01/2021 03:00 am
Your HonorUSS01E08Part Eight4 days, 17 hours Mon 25/01/2021 03:00 am
МетодRUS02E10Серия 104 days, 18 hours Mon 25/01/2021 04:00 am
HeartlandCAS14E03Making Amends4 days, 14 hours Mon 25/01/2021 12:00 am
Boruto: Naruto Next GenerationsJPS01E183The Hand4 days, 15 hours Mon 25/01/2021 12:25 am
American GodsUSS03E03Ashes and Demons4 days, 15 hours Mon 25/01/2021 01:00 am
BatwomanUSS02E02Prior Criminal History4 days, 15 hours Mon 25/01/2021 01:00 am
The Real Housewives of AtlantaUSS13E07Episode 74 days, 15 hours Mon 25/01/2021 01:00 am
The WatchUSS01E05Not on My Watch4 days, 15 hours Mon 25/01/2021 01:00 am
CharmedUSS03E01An Inconvenient Truth NEW season4 days, 16 hours Mon 25/01/2021 02:00 am
Lone Star LawUSS09E04Deadly Spill4 days, 16 hours Mon 25/01/2021 02:00 am
BullUSS05E07The Head Of The Goat5 days, 17 hours Tue 26/01/2021 03:00 am
The Good DoctorUSS04E08Parenting5 days, 17 hours Tue 26/01/2021 03:00 am
9-1-1USS04E02Alone Together5 days, 15 hours Tue 26/01/2021 01:00 am
All AmericanUSS03E02How To Survive In South Central5 days, 15 hours Tue 26/01/2021 01:00 am
Ellen's Game of GamesUSS04E07You Heard It Hear Burst5 days, 15 hours Tue 26/01/2021 01:00 am
Murdoch MysteriesCAS14E04Shock Value5 days, 15 hours Tue 26/01/2021 01:00 am
Police InterceptorsGBS18E14Episode 145 days, 15 hours Tue 26/01/2021 01:00 am
The BachelorUSS25E04Episode 45 days, 15 hours Tue 26/01/2021 01:00 am
The Neighborhood (CBS)USS03E08Welcome to the Property5 days, 15 hours Tue 26/01/2021 01:00 am
Bob ? AbisholaUSS02E08Honest Yak Prices5 days, 16 hours Tue 26/01/2021 01:30 am
9-1-1: Lone StarUSS02E022100°5 days, 16 hours Tue 26/01/2021 02:00 am
All RiseUSS02E07Almost The Meteor5 days, 16 hours Tue 26/01/2021 02:00 am
American PickersUSS22E01Pumps, Prints and Picks NEW season5 days, 16 hours Tue 26/01/2021 02:00 am
Frankie Drake MysteriesCAS04E04A Most Foiled Assault5 days, 16 hours Tue 26/01/2021 02:00 am
SnowpiercerUSS02E01The Time of Two Engines NEW season5 days, 16 hours Tue 26/01/2021 02:00 am
Big SkyUSS01E06The Wolves Are Always Out for Blood6 days, 17 hours Wed 27/01/2021 03:00 am
FBI: Most WantedUSS02E05The Line6 days, 17 hours Wed 27/01/2021 03:00 am
Holby CityGBS22E35Episode 356 days, 15 hours Wed 27/01/2021 12:50 am
Hudson & RexCAS03E04Under Pressure6 days, 15 hours Wed 27/01/2021 01:00 am
Kim's ConvenienceCAS05E02Channouncements6 days, 15 hours Wed 27/01/2021 01:00 am
NCISUSS18E061mm6 days, 15 hours Wed 27/01/2021 01:00 am
The ResidentUSS04E03The Accidental Patient6 days, 15 hours Wed 27/01/2021 01:00 am
Two Sentence Horror StoriesUSS02E05Quota6 days, 15 hours Wed 27/01/2021 01:00 am
Zoey's Extraordinary PlaylistUSS02E04Zoey's Extraordinary Employee6 days, 15 hours Wed 27/01/2021 01:00 am
black-ishUSS07E09'black-out6 days, 16 hours Wed 27/01/2021 02:00 am
Life Below Zero: Next GenerationUSS02E02Hard Luck6 days, 16 hours Wed 27/01/2021 02:00 am
MarcellaS03E01Episode 1 NEW season6 days, 16 hours Wed 27/01/2021 02:00 am
Prodigal SonUSS02E03Alma Mater6 days, 16 hours Wed 27/01/2021 02:00 am
mixed-ishUSS02E01Sweet Child O' Mine NEW season6 days, 17 hours Wed 27/01/2021 02:30 am
Chicago P.D.USS08E04Unforgiven7 days, 17 hours Thu 28/01/2021 03:00 am
For LifeUSS02E063547 days, 17 hours Thu 28/01/2021 03:00 am
Resident AlienUSS01E01Pilot NEW7 days, 17 hours Thu 28/01/2021 03:00 am
S.W.A.T.USS04E08Crusade7 days, 17 hours Thu 28/01/2021 03:00 am
BondingS02E01Episode 1 NEW season7 days, 14 hours Thu 28/01/2021 12:00 am
Chicago MedUSS06E04In Search of Forgiveness, Not Permission7 days, 15 hours Thu 28/01/2021 01:00 am
The GoldbergsUSS08E09Cocoon7 days, 15 hours Thu 28/01/2021 01:00 am
American HousewifeUSS05E07Under Pressure7 days, 16 hours Thu 28/01/2021 01:30 am
Chicago FireUSS09E04Funny What Things Remind Us7 days, 16 hours Thu 28/01/2021 02:00 am
SEAL TeamUSS04E06Horror Has A Face7 days, 16 hours Thu 28/01/2021 02:00 am
Burden of TruthCAS04E01River City NEW season8 days, 15 hours Fri 29/01/2021 01:00 am
Desus & MeroUSS2021E01TBA11 days, 18 hours Mon 01/02/2021 04:00 am
ShamelessUSS11E05Slaughter11 days, 16 hours Mon 01/02/2021 02:00 am
This Is UsUSS05E07There13 days, 16 hours Wed 03/02/2021 02:00 am
CoronerCAS03E01Bobby NEW season14 days, 16 hours Thu 04/02/2021 02:00 am
Impractical JokersUSS09E01Episode 1 NEW season15 days, 17 hours Fri 05/02/2021 03:00 am
Swamp PeopleUSS12E01Gator Attack NEW season15 days, 16 hours Fri 05/02/2021 02:00 am
The EqualizerUSS01E01Pilot NEW18 days, 15 hours Mon 08/02/2021 01:00 am
Black LightningUSS04E01The Book of Reconstruction: Chapter One NEW season19 days, 16 hours Tue 09/02/2021 02:00 am
ClariceUSS01E01Episode 1 NEW22 days, 17 hours Fri 12/02/2021 03:00 am
Into the DarkS03E01Tentacles NEW season23 days, 14 hours Sat 13/02/2021 12:00 am
Are You Afraid of the Dark?USS02E01Episode 1 NEW season23 days, 15 hours Sat 13/02/2021 01:00 am
NCIS: New OrleansUSS07E08Leda and the Swan, Part II25 days, 17 hours Mon 15/02/2021 03:00 am
Last Week Tonight with John OliverUSS08E01TBA NEW season25 days, 18 hours Mon 15/02/2021 04:00 am
American IdolUSS19E01Auditions 1 NEW season25 days, 15 hours Mon 15/02/2021 01:00 am
The SimpsonsUSS32E12Diary Queen25 days, 15 hours Mon 15/02/2021 01:00 am
The Great NorthUSS01E03Romantic Meat-Based Adventure25 days, 16 hours Mon 15/02/2021 01:30 am
NCIS: Los AngelesUSS12E10The Frogman's Daughter25 days, 16 hours Mon 15/02/2021 02:00 am
Family GuyUSS19E11Tales of Former Sports Glory25 days, 17 hours Mon 15/02/2021 02:30 am
The CrewS01E01Episode 1 NEW26 days, 14 hours Tue 16/02/2021 12:00 am
Young RockUSS01E01Episode 1 NEW27 days, 15 hours Wed 17/02/2021 01:00 am
The Kenan ShowUSS01E01TBA NEW27 days, 16 hours Wed 17/02/2021 01:30 am
Good TroubleUSS03E01Episode 1 NEW season28 days, 17 hours Thu 18/02/2021 03:00 am
For All MankindS02E01Every Little Thing NEW season1 month Sat 20/02/2021 12:00 am
Modern MarvelsUSS20E01Episode 1 NEW season1 month, 2 days Mon 22/02/2021 03:00 am
When Calls the HeartUSS08E01Episode 1 NEW season1 month, 2 days Mon 22/02/2021 01:00 am
DuckTalesUSS03E19Beaks in the Shell1 month, 2 days Mon 22/02/2021 02:30 pm
The FlashUSS07E01All's Well That Ends Wells NEW season1 month, 4 days Wed 24/02/2021 01:00 am
Superman & LoisUSS01E01Pilot NEW1 month, 4 days Wed 24/02/2021 02:00 am
SnowfallUSS04E01Episode 1 NEW season1 month, 5 days Thu 25/02/2021 03:00 am
Forged in FireUSS08E10Headhunters Revenge1 month, 5 days Thu 25/02/2021 02:00 am
The Walking DeadUSS10E17Home Sweet Home1 month, 9 days Mon 01/03/2021 02:00 am
A Million Little ThingsUSS03E05Non-essential1 month, 13 days Fri 05/03/2021 03:00 am
Station 19USS04E06Episode 61 month, 13 days Fri 05/03/2021 01:00 am
Grey's AnatomyUSS17E07Episode 71 month, 13 days Fri 05/03/2021 02:00 am
VICEUSS08E01Episode 1 NEW season1 month, 16 days Mon 08/03/2021 01:00 am
PennyworthUSS02E05Episode 51 month, 16 days Mon 08/03/2021 02:00 am
The Falcon and The Winter SoldierS01E01Episode 1 NEW1 month, 28 days Sat 20/03/2021 12:00 am
Solar OppositesS02E01Episode 1 NEW season2 months Sat 27/03/2021 12:00 am
RuPaul's Drag Race: All StarsUSS06E01Episode 1 NEW season3 months Sat 24/04/2021 01:00 am
Selena: The SeriesS02E01TBA NEW season3 months Sat 15/05/2021 12:00 am
The SopranosUSS06EMany Saints of Newark8 months Sat 25/09/2021 02:00 am

Updated 20/Jan/2021 (EST) - data source TVmaze - status updates Twitter | Facebook